Location: Hebron
(33.0265°N, 96.8636°W)
Time: 01:23:41
(UTC+00:00)

Cosmos 1812 - Pass Details

Date: 07 July 2022
Orbit: 508 x 515 km, 82.5° (Epoch: 16 August)

Event Time Altitude Azimuth Distance (km) Brightness Sun altitude
Rises 07:01:13 0° 2° (N) 2,630 7.3 -34.0°
Reaches altitude 10° 07:03:27 10° 10° (N) 1,738 6.2 -33.9°
Enters shadow 07:04:09 15° 14° (NNE) 1,472 5.7 -33.9°
